Location: Chiroubles
(46.1812°N, 4.6660°E)
Time: 03:36:48
(UTC+00:00)

Cosmos 2082 Rocket - Pass Details

Date: 15 August 2020
Orbit: 835 x 852 km, 71.0° (Epoch: 27 September)

Event Time Altitude Azimuth Distance (km) Brightness Sun altitude
Rises 20:03:25 0° 219° (SW) 3,400 5.4 -12.1°
Reaches altitude 10° 20:05:55 10° 224° (SW) 2,466 4.7 -12.4°
Maximum altitude 20:11:28 55° 301° (WNW) 1,014 3.0 -13.2°
Drops below altitude 10° 20:17:01 10° 19° (NNE) 2,470 4.9 -14.0°
Sets 20:19:32 0° 24° (NNE) 3,405 5.5 -14.3°
